Location: Newark
(48.8604°N, 2.3376°E)
Time: 02:05:41
(UTC+00:00)

X-37B - Visible Passes

Search period start: 22 September 2020 00:00
Search period end: 02 October 2020 00:00
Orbit: 386 x 387 km, 45.0° (Epoch: 18 September)

Date Brightness Start Highest point End Pass type
(mag) Time Alt. Az. Time Alt. Az. Time Alt. Az.
22 Sep 2.0 04:18:37 22° SW 04:19:10 23° SSW 04:21:47 10° SE visible
23 Sep 3.2 03:23:01 14° SE 03:23:01 14° SE 03:23:36 10° SE visible
23 Sep 2.9 04:55:42 10° SW 04:56:44 11° SSW 04:57:46 10° SSW visible
24 Sep 3.0 03:59:50 13° S 03:59:50 13° S 04:00:33 10° SSE visible
